カタログに戻る

SL-8 DEB

運用中LEO
NORAD 18698·DEBRIS·🇷🇺 Russia

打ち上げ Dec 1, 1987 から Plesetsk Cosmodrome

Loading…

次のパス (今後24時間)

TLE

最新Source: Space-Track

元期: Sep 14, 2026, 06:22 UTC

1 18698U 87098D   26257.26592199  .00000898  00000-0  22757-3 0  9990
2 18698  73.9826  56.0817 0013022 305.2719 112.0842 14.52343042 35735

AllMySatでSL-8 DEBをリアルタイム追跡

Download on the App Store